When you browse on this site, cookies collect data to enhance your experience and personalize the content and advertising you see.
Visit our Privacy Policy to learn more. By continuing to use the site, you agree to this use of cookies and data.
  • In Hungary
  • List of Countries
  • For 7 days
  • Water Temperature
  • Weather Map
  • News
  • Weather Widgets
  • user-avatar
    Login

    Hourly Weather Bazykino

    Today, 27 January, Monday

    Time Temperature Precipitation Wind Pressure Humidity
    00:00 +1°C° 0.1 mm 6 mps 740 mmHg 93%
    01:00 +1°C° 0.1 mm 5 mps 740 mmHg 93%
    02:00 0°C° 0 mm 4 mps 741 mmHg 93%
    03:00 -1°C° 0.2 mm 4 mps 741 mmHg 93%
    04:00 0°C° 0.2 mm 3 mps 742 mmHg 93%
    05:00 -1°C° 0.2 mm 3 mps 742 mmHg 94%
    06:00 -2°C° 0.1 mm 2 mps 743 mmHg 94%
    07:00 -3°C° 0.1 mm 2 mps 743 mmHg 93%
    08:00 -3°C° 0.1 mm 2 mps 744 mmHg 93%
    09:00 -3°C° 0 mm 2 mps 744 mmHg 90%
    10:00 -3°C° 0 mm 2 mps 745 mmHg 87%
    11:00 -3°C° 0 mm 2 mps 745 mmHg 84%
    12:00 -3°C° 0 mm 2 mps 745 mmHg 81%
    13:00 -3°C° 0 mm 2 mps 746 mmHg 79%
    14:00 -3°C° 0 mm 2 mps 746 mmHg 77%
    15:00 -4°C° 0.1 mm 2 mps 746 mmHg 79%
    16:00 -5°C° 0.1 mm 3 mps 746 mmHg 81%
    17:00 -5°C° 0.1 mm 3 mps 746 mmHg 84%
    18:00 -6°C° 0.3 mm 3 mps 746 mmHg 85%
    19:00 -7°C° 0.3 mm 4 mps 746 mmHg 87%
    20:00 -7°C° 0.3 mm 4 mps 746 mmHg 89%
    21:00 -7°C° 0.4 mm 4 mps 745 mmHg 90%
    22:00 -7°C° 0.4 mm 4 mps 745 mmHg 92%
    23:00 -7°C° 0.4 mm 4 mps 745 mmHg 93%

    Tomorrow, 28 January, Tuesday

    Time Temperature Precipitation Wind Pressure Humidity
    00:00 -7°C° 0.4 mm 4 mps 745 mmHg 93%
    01:00 -7°C° 0.4 mm 4 mps 744 mmHg 93%
    02:00 -7°C° 0.4 mm 4 mps 744 mmHg 94%
    03:00 -7°C° 0.3 mm 4 mps 744 mmHg 94%
    04:00 -7°C° 0.3 mm 4 mps 743 mmHg 94%
    05:00 -7°C° 0.3 mm 4 mps 743 mmHg 94%
    06:00 -6°C° 0.2 mm 3 mps 743 mmHg 94%
    07:00 -6°C° 0.2 mm 3 mps 743 mmHg 94%
    08:00 -6°C° 0.2 mm 3 mps 742 mmHg 94%
    09:00 -5°C° 0.2 mm 3 mps 742 mmHg 94%
    10:00 -5°C° 0.2 mm 3 mps 742 mmHg 94%
    11:00 -4°C° 0.2 mm 3 mps 742 mmHg 93%
    12:00 -4°C° 0.1 mm 3 mps 742 mmHg 93%
    13:00 -3°C° 0.1 mm 2 mps 742 mmHg 93%
    14:00 -2°C° 0.1 mm 2 mps 742 mmHg 93%
    15:00 -2°C° 0 mm 2 mps 742 mmHg 94%
    16:00 -3°C° 0 mm 2 mps 742 mmHg 95%
    17:00 -3°C° 0 mm 2 mps 742 mmHg 97%
    18:00 -3°C° 0.1 mm 2 mps 742 mmHg 97%
    19:00 -1°C° 0.1 mm 1 mps 742 mmHg 97%
    20:00 0°C° 0.1 mm 1 mps 742 mmHg 97%
    21:00 -1°C° 0 mm 1 mps 742 mmHg 97%
    22:00 -1°C° 0 mm 1 mps 742 mmHg 97%
    23:00 -1°C° 0 mm 1 mps 742 mmHg 97%

    Day after tomorrow, 29 January, Wednesday

    Time Temperature Precipitation Wind Pressure Humidity
    00:00 -3°C° 0.1 mm 2 mps 742 mmHg 97%
    01:00 -3°C° 0.1 mm 2 mps 742 mmHg 97%
    02:00 -3°C° 0.1 mm 2 mps 742 mmHg 97%
    03:00 -3°C° 0 mm 2 mps 741 mmHg 97%
    04:00 -3°C° 0 mm 2 mps 741 mmHg 96%
    05:00 -4°C° 0 mm 2 mps 741 mmHg 96%
    06:00 -3°C° 0 mm 2 mps 741 mmHg 96%
    07:00 -3°C° 0 mm 2 mps 741 mmHg 96%
    08:00 -3°C° 0 mm 2 mps 741 mmHg 95%
    09:00 -2°C° 0 mm 2 mps 741 mmHg 94%
    10:00 -1°C° 0 mm 3 mps 741 mmHg 93%
    11:00 -1°C° 0 mm 3 mps 741 mmHg 92%
    12:00 -1°C° 0 mm 3 mps 741 mmHg 92%
    13:00 -1°C° 0 mm 3 mps 741 mmHg 92%
    14:00 -1°C° 0 mm 3 mps 740 mmHg 92%
    15:00 -1°C° 0 mm 3 mps 740 mmHg 93%
    16:00 -1°C° 0 mm 3 mps 740 mmHg 95%
    17:00 -1°C° 0 mm 3 mps 740 mmHg 96%
    18:00 -1°C° 0 mm 3 mps 740 mmHg 95%
    19:00 -1°C° 0 mm 3 mps 739 mmHg 94%
    20:00 -1°C° 0 mm 3 mps 739 mmHg 93%
    21:00 0°C° 0 mm 3 mps 739 mmHg 93%
    22:00 -1°C° 0 mm 4 mps 739 mmHg 94%
    23:00 -1°C° 0 mm 4 mps 738 mmHg 94%

    30 January, Thursday

    Time Temperature Precipitation Wind Pressure Humidity
    00:00 -1°C° 0.1 mm 4 mps 738 mmHg 95%
    01:00 -1°C° 0.1 mm 4 mps 738 mmHg 96%
    02:00 -1°C° 0.1 mm 4 mps 737 mmHg 97%
    03:00 -1°C° 0.2 mm 4 mps 737 mmHg 97%
    04:00 -1°C° 0.2 mm 4 mps 737 mmHg 97%
    05:00 -1°C° 0.2 mm 4 mps 736 mmHg 97%
    06:00 -1°C° 0.2 mm 4 mps 736 mmHg 97%
    07:00 -1°C° 0.2 mm 4 mps 736 mmHg 97%
    08:00 -1°C° 0.2 mm 4 mps 736 mmHg 97%
    09:00 -1°C° 0.2 mm 4 mps 736 mmHg 97%
    10:00 -2°C° 0.2 mm 4 mps 735 mmHg 97%
    11:00 -2°C° 0.2 mm 4 mps 735 mmHg 97%
    12:00 -2°C° 0.2 mm 4 mps 735 mmHg 96%
    13:00 -2°C° 0.2 mm 4 mps 735 mmHg 96%
    14:00 -2°C° 0.2 mm 4 mps 734 mmHg 95%
    15:00 -3°C° 0.3 mm 4 mps 734 mmHg 95%
    16:00 -2°C° 0.3 mm 3 mps 734 mmHg 96%
    17:00 -2°C° 0.3 mm 3 mps 734 mmHg 96%
    18:00 -2°C° 0.1 mm 3 mps 734 mmHg 96%
    19:00 -4°C° 0.1 mm 3 mps 734 mmHg 96%
    20:00 -3°C° 0.1 mm 2 mps 734 mmHg 96%
    21:00 -3°C° 0.1 mm 2 mps 734 mmHg 96%
    22:00 -3°C° 0.1 mm 2 mps 734 mmHg 96%
    23:00 -3°C° 0.1 mm 2 mps 734 mmHg 96%

    31 January, Friday

    Time Temperature Precipitation Wind Pressure Humidity
    00:00 -3°C° 0 mm 2 mps 734 mmHg 96%
    01:00 -3°C° 0 mm 2 mps 734 mmHg 96%
    02:00 -4°C° 0 mm 2 mps 734 mmHg 97%
    03:00 -2°C° 0 mm 1 mps 734 mmHg 97%
    04:00 -2°C° 0 mm 1 mps 734 mmHg 97%
    05:00 -2°C° 0 mm 1 mps 734 mmHg 96%
    06:00 -2°C° 0 mm 1 mps 734 mmHg 96%
    07:00 -2°C° 0 mm 1 mps 735 mmHg 96%
    08:00 -2°C° 0 mm 1 mps 735 mmHg 96%
    09:00 -1°C° 0 mm 1 mps 735 mmHg 93%
    10:00 -2°C° 0 mm 0 mps 735 mmHg 91%
    11:00 -1°C° 0 mm 0 mps 735 mmHg 88%
    12:00 -1°C° 0 mm 0 mps 735 mmHg 87%
    13:00 -1°C° 0 mm 0 mps 735 mmHg 86%
    14:00 -1°C° 0 mm 0 mps 735 mmHg 86%
    15:00 -2°C° 0 mm 0 mps 735 mmHg 87%
    16:00 -2°C° 0 mm 0 mps 736 mmHg 88%
    17:00 -3°C° 0 mm 0 mps 736 mmHg 90%
    18:00 -3°C° 0 mm 0 mps 736 mmHg 90%
    19:00 -3°C° 0 mm 0 mps 737 mmHg 90%
    20:00 -3°C° 0 mm 0 mps 737 mmHg 90%
    21:00 -2°C° 0 mm 1 mps 737 mmHg 91%
    22:00 -3°C° 0 mm 1 mps 737 mmHg 91%
    23:00 -3°C° 0 mm 1 mps 738 mmHg 92%

    1 February, Saturday

    Time Temperature Precipitation Wind Pressure Humidity
    00:00 -3°C° 0 mm 1 mps 738 mmHg 93%
    01:00 -3°C° 0 mm 1 mps 738 mmHg 95%
    02:00 -3°C° 0 mm 1 mps 739 mmHg 96%
    03:00 -3°C° 0 mm 1 mps 739 mmHg 96%
    04:00 -3°C° 0 mm 1 mps 739 mmHg 96%
    05:00 -3°C° 0 mm 1 mps 739 mmHg 97%
    06:00 -3°C° 0 mm 1 mps 739 mmHg 96%
    07:00 -3°C° 0 mm 1 mps 739 mmHg 96%
    08:00 -4°C° 0 mm 2 mps 739 mmHg 96%
    09:00 -4°C° 0 mm 2 mps 739 mmHg 94%
    10:00 -3°C° 0 mm 2 mps 739 mmHg 92%
    11:00 -2°C° 0 mm 3 mps 739 mmHg 90%
    12:00 -2°C° 0 mm 3 mps 739 mmHg 89%
    13:00 -2°C° 0 mm 3 mps 738 mmHg 88%
    14:00 -2°C° 0 mm 3 mps 738 mmHg 87%
    15:00 -2°C° 0 mm 3 mps 737 mmHg 88%
    16:00 -3°C° 0 mm 4 mps 737 mmHg 89%
    17:00 -4°C° 0 mm 4 mps 737 mmHg 90%
    18:00 -3°C° 0.1 mm 4 mps 736 mmHg 91%
    19:00 -3°C° 0.1 mm 4 mps 736 mmHg 93%
    20:00 -3°C° 0.1 mm 4 mps 736 mmHg 94%
    21:00 -3°C° 0.1 mm 4 mps 735 mmHg 95%
    22:00 -3°C° 0.1 mm 4 mps 735 mmHg 95%
    23:00 -2°C° 0.1 mm 4 mps 735 mmHg 96%
    Show more